Estherville Municipal Airport
Tuesday 10:52 PM
Temperature53° (72°/45°)
Dew Point50°
Relative Humidity89
%
Visibility10
mi
Pressure1019.0
mb
Wind Direction
Wind Speed3
mph
Precipitation Today0.00"

Last 30 Observations

Time PresWx Temp DP Feels RH% Vsby Pressure Ceiling Direction Speed 1h Precip
9:52 PM 57° 51° 81
%
10
mi
1019.3
mb
SSE
160°
6
mph
0.00"
8:52 PM 58° 52° 81
%
10
mi
1018.3
mb
SE
140°
7
mph
0.00"
7:52 PM 65° 54° 68
%
10
mi
1018.6
mb
SE
140°
5
mph
0.00"
6:52 PM 69° 49° 49
%
10
mi
1019.0
mb
SE
140°
7
mph
0.00"
5:52 PM 71° 50° 70°47
%
10
mi
1019.3
mb
ESE
120°
7
mph
0.00"
4:52 PM 71° 49° 70°45
%
10
mi
1019.7
mb
S
170°
6
mph
0.00"
3:52 PM 71° 48° 70°44
%
10
mi
1020.3
mb
ESE
110°
7
mph
0.00"
2:52 PM 70° 48° 46
%
10
mi
1020.7
mb
Variable 7
mph
0.00"
1:52 PM 70° 50° 49
%
10
mi
1021.3
mb
SSE
150°
6
mph
0.00"
12:52 PM 69° 49° 49
%
10
mi
1021.7
mb
E
80°
5
mph
0.00"
11:52 AM 67° 49° 52
%
10
mi
1021.7
mb
Calm 0.00"
10:52 AM 65° 49° 56
%
10
mi
1022.0
mb
S
190°
6
mph
0.00"
9:52 AM 63° 50° 63
%
10
mi
1022.0
mb
S
170°
7
mph
0.00"
8:52 AM 59° 52° 78
%
10
mi
1022.4
mb
S
190°
5
mph
0.00"
7:52 AM 54° 53° 97
%
10
mi
1022.0
mb
Calm 0.00"
6:52 AM BR 46° 46° 100
%
5
mi
1021.7
mb
Calm 0.00"
5:52 AM 46° 45° 96
%
10
mi
1021.3
mb
Calm 0.00"
4:52 AM 47° 46° 97
%
10
mi
1021.3
mb
Calm 0.00"
3:52 AM 49° 48° 97
%
10
mi
1021.0
mb
Calm 0.00"
2:52 AM 51° 50° 96
%
10
mi
1021.3
mb
SW
230°
3
mph
0.00"
1:52 AM 55° 53° 93
%
10
mi
1022.0
mb
8,000
ft
ESE
110°
3
mph
0.00"
12:52 AM 52° 52° 100
%
10
mi
1022.4
mb
7,500
ft
E
80°
5
mph
0.00"
11:52 PM 55° 53° 93
%
10
mi
1022.4
mb
E
100°
3
mph
0.00"
10:52 PM 57° 54° 89
%
10
mi
1021.7
mb
5,500
ft
E
100°
6
mph
0.00"
9:52 PM 57° 54° 89
%
10
mi
1020.7
mb
E
100°
6
mph
0.00"
8:52 PM 59° 54° 83
%
10
mi
1020.3
mb
E
100°
7
mph
0.00"
7:52 PM 67° 55° 66
%
10
mi
1020.3
mb
ENE
60°
6
mph
0.00"
6:52 PM 66° 55° 68
%
10
mi
1020.0
mb
N
10°
3
mph
0.00"
5:52 PM 68° 53° 59
%
10
mi
1020.3
mb
8,000
ft
NE
40°
7
mph
0.00"
4:52 PM 70° 54° 57
%
10
mi
1021.0
mb
8,500
ft
NNE
30°
8
mph
0.00"